[[{"header":{"parameterUnit":"m.s-1","parameterCategory":1,"la1":30.2991,"la2":30.254,"lo1":-89.0895,"lo2":-89.0444,"dy":0.0017,"dx":0.0017,"nx":28,"ny":28,"refTime":"2024-02-01T09:00:00:Z","depth":0,"parameterNumber":2,"parameterNumberName":"U-component_of_WINDS"},"data":[0,0,0,0,0,0,0,0,0,0,0,0,0,0,0,0,0,0,0,0,0,0,0,0,0,0,0,0,0,0,0,0,0,0,0,0,0,0,0,0,0,0,0,0,0,0,0,0,0,0,0,0,0,0,0,0,0,0,0.1099,0.11,0,0.1146,0.1147,0.1147,0.1181,0.1181,0.1182,0.1182,0.1229,0.123,0.1231,0,0,0,0,0,0,0,0,0,0,0,0,0,0.1037,0.1038,0.1099,0.11,0.11,0.1146,0.1147,0.1147,0.1181,0.1181,0.1182,0.1182,0.1229,0.123,0.1231,0,0,0,0,0,0,0,0,0,0,0,0,0,0.1072,0.1039,0.1099,0.1123,0.1125,0.1146,0.1147,0.1148,0.1181,0.1181,0.1182,0.1182,0.1229,0.123,0.1232,0.1232,0,0,0.1236,0.1237,0,0,0,0,0,0,0,0,0.107,0.1074,0.1119,0.1121,0.1124,0.1158,0.1142,0.1176,0.1181,0.116,0.1182,0.1182,0.1205,0.1209,0.1217,0.1235,0.1237,0.1236,0.1237,0.1238,0.1238,0,0,0,0,0,0,0,0.1068,0.1073,0.1118,0.1119,0.1122,0.1131,0.1136,0.1149,0.118,0.1162,0.1164,0.1169,0.1207,0.1215,0.1218,0.1237,0.1236,0.1238,0.1239,0.1239,0.1258,0.1257,0,0,0,0,0,0,0.1062,0.107,0.1116,0.1119,0.1098,0.1131,0.1137,0.1147,0.118,0.1185,0.1169,0.1171,0.1212,0.1216,0.122,0.1223,0.1238,0.1239,0.124,0.1258,0.1258,0.1257,0,0,0,0,0,0,0.106,0.1066,0.1114,0.1095,0.1102,0.1132,0.1142,0.1148,0.1156,0.1185,0.1191,0.1172,0.1213,0.1218,0.1229,0.1225,0.124,0.1241,0.1259,0.1258,0.1257,0.1229,0,0,0,0,0,0,0.1058,0.1065,0.1066,0.1095,0.1103,0.1123,0.1142,0.1148,0.1158,0.1161,0.1189,0.1194,0.1214,0.1227,0.123,0.1227,0.1243,0.1259,0.1258,0.1258,0.123,0.1227,0.1224,0,0,0,0,0,0.1056,0.1056,0.1066,0.1071,0.1105,0.1123,0.1127,0.115,0.1158,0.1159,0.1178,0.1193,0.1225,0.1227,0.1232,0.1229,0.126,0.1259,0.1258,0.1231,0.1228,0.1225,0,0,0,0,0,0,0.1025,0.106,0.1071,0.1081,0.1098,0.1128,0.113,0.1145,0.1161,0.1163,0.119,0.1196,0.1204,0.1218,0.122,0.1231,0.1244,0.1244,0.1222,0.1219,0.1216,0.1213,0.1244,0,0,0,0,0,0.1019,0.1031,0.1061,0.1066,0.1074,0.11,0.1109,0.1125,0.1144,0.1152,0.1171,0.1189,0.1203,0.1212,0.1226,0.1232,0.1238,0.1232,0.1229,0.1227,0.1227,0.123,0.1228,0.1254,0.1254,0.1254,0,0,0.1007,0.1028,0.1033,0.106,0.1076,0.1087,0.1107,0.1118,0.1126,0.1154,0.1165,0.118,0.1202,0.121,0.1215,0.1222,0.1221,0.1226,0.1224,0.1225,0.1229,0.1227,0.1224,0.1254,0.1254,0.1254,0,0,0.0991,0.1008,0.1014,0.1029,0.1053,0.107,0.1071,0.1099,0.111,0.1122,0.1143,0.1153,0.1176,0.1191,0.1202,0.119,0.1205,0.1194,0.118,0.1183,0.1181,0.1179,0.1175,0.1173,0.1194,0.1194,0.1194,0,0.0973,0.0991,0.1015,0.1025,0.1036,0.1061,0.1067,0.1081,0.1107,0.1114,0.1122,0.1151,0.1168,0.118,0.1177,0.1184,0.1186,0.1191,0.1179,0.1178,0.1177,0.1173,0.1171,0.1192,0.1192,0.1192,0.1193,0,0.0968,0.098,0.0982,0.1008,0.1019,0.1027,0.1051,0.1059,0.1074,0.109,0.1102,0.1123,0.1141,0.1145,0.116,0.1159,0.1163,0.1174,0.1188,0.1172,0.1169,0.1168,0.119,0.119,0.1191,0.1191,0,0,0.0935,0.0973,0.0973,0.0985,0.1012,0.1022,0.103,0.1049,0.1055,0.1072,0.108,0.1099,0.111,0.1122,0.1137,0.114,0.113,0.1152,0.1152,0.1147,0.113,0.1121,0.1119,0.114,0.1139,0.1139,0.1128,0,0.0923,0.0941,0.0962,0.0972,0.0983,0.1007,0.1014,0.1031,0.1047,0.1058,0.1075,0.1088,0.1101,0.1108,0.1112,0.113,0.1127,0.1131,0.1147,0.1147,0.1141,0.1118,0.1109,0.1098,0.1127,0.1127,0.1127,0,0.0912,0.0928,0.0939,0.0965,0.0971,0.0977,0.0996,0.1006,0.1026,0.1037,0.105,0.1067,0.1077,0.1088,0.1102,0.1104,0.1112,0.1121,0.1121,0.1124,0.1136,0.112,0.1095,0.1093,0.1125,0.1126,0.1126,0,0.0886,0.0911,0.0921,0.093,0.096,0.0964,0.0977,0.0997,0.1007,0.1023,0.1029,0.1046,0.1055,0.1067,0.1088,0.1094,0.1099,0.1112,0.1108,0.1108,0.1109,0.1108,0.1084,0.1113,0.1113,0.1113,0.1113,0,0.0871,0.0877,0.091,0.0916,0.0923,0.0947,0.0953,0.0968,0.0985,0.0994,0.1015,0.1023,0.105,0.1061,0.1077,0.1086,0.109,0.1099,0.1103,0.1097,0.1096,0.1102,0.1104,0.1112,0.1113,0.1113,0.1113,0,0.0844,0.0866,0.0878,0.0906,0.0913,0.0917,0.094,0.0947,0.0963,0.0974,0.0978,0.1004,0.1017,0.1039,0.1059,0.107,0.1076,0.1083,0.107,0.1072,0.1067,0.1067,0.1046,0.1045,0.1074,0.1074,0.1074,0,0.0833,0.0838,0.0867,0.0874,0.0886,0.0898,0.0908,0.0932,0.0941,0.0963,0.0967,0.0982,0.0996,0.1017,0.1037,0.1052,0.106,0.1052,0.1063,0.1056,0.106,0.1059,0.106,0.1049,0.1049,0.1048,0.1048,0,0.0812,0.0822,0.0836,0.0853,0.0864,0.0878,0.0894,0.0899,0.0926,0.0935,0.095,0.096,0.0981,0.0995,0.1014,0.1026,0.1042,0.1045,0.1044,0.1039,0.103,0.1035,0.1063,0.1045,0.1045,0.1046,0.1046,0.1046,0.0793,0.0798,0.0818,0.0833,0.0847,0.0861,0.0868,0.0885,0.0898,0.0916,0.0929,0.0943,0.0962,0.0988,0.1,0.101,0.1017,0.1017,0.1017,0.1016,0.1014,0.1028,0.1014,0.1014,0.1014,0.1014,0.1014,0,0.0772,0.0786,0.0799,0.082,0.0831,0.0844,0.0862,0.087,0.0882,0.0899,0.0912,0.0928,0.0942,0.0963,0.0979,0.0983,0.0991,0.0987,0.0987,0.099,0.1007,0.1006,0.0981,0.0981,0.0981,0.0981,0.0981,0.0981,0.0763,0.0772,0.0785,0.0802,0.0816,0.083,0.0839,0.0851,0.0865,0.0882,0.0894,0.0908,0.0926,0.0943,0.0957,0.0963,0.0967,0.0961,0.0969,0.0985,0.0988,0.0991,0.099,0.0962,0.0962,0.0951,0.0951,0.095]},{"header":{"parameterUnit":"m.s-1","parameterCategory":1,"la1":30.2991,"la2":30.254,"lo1":-89.0895,"lo2":-89.0444,"dy":0.0017,"dx":0.0017,"nx":28,"ny":28,"refTime":"2024-02-01T09:00:00:Z","depth":0,"parameterNumber":3,"parameterNumberName":"V-component_of_WINDS"},"data":[0,0,0,0,0,0,0,0,0,0,0,0,0,0,0,0,0,0,0,0,0,0,0,0,0,0,0,0,0,0,0,0,0,0,0,0,0,0,0,0,0,0,0,0,0,0,0,0,0,0,0,0,0,0,0,0,0,0,0.5743,0.5743,0,0.576,0.576,0.576,0.5801,0.5802,0.5803,0.5803,0.5819,0.5819,0.5818,0,0,0,0,0,0,0,0,0,0,0,0,0,0.5744,0.5744,0.5743,0.5743,0.5743,0.576,0.576,0.576,0.5801,0.5802,0.5803,0.5804,0.5819,0.5819,0.5818,0,0,0,0,0,0,0,0,0,0,0,0,0,0.5751,0.5744,0.5743,0.5766,0.5768,0.576,0.576,0.576,0.58,0.5802,0.5803,0.5804,0.5819,0.5819,0.5818,0.5789,0,0,0.5817,0.5816,0,0,0,0,0,0,0,0,0.575,0.5751,0.5762,0.5764,0.5766,0.578,0.5766,0.577,0.58,0.5788,0.5803,0.5805,0.5805,0.5806,0.5806,0.579,0.579,0.5817,0.5816,0.5816,0.5816,0,0,0,0,0,0,0,0.575,0.575,0.575,0.5762,0.5765,0.5774,0.5777,0.5767,0.5789,0.5789,0.5792,0.5794,0.5806,0.5806,0.5807,0.5791,0.5817,0.5816,0.5816,0.5816,0.5751,0.575,0,0,0,0,0,0,0.5746,0.5749,0.5749,0.575,0.5761,0.5773,0.5776,0.5774,0.5789,0.5793,0.5793,0.5796,0.5807,0.5807,0.5807,0.5774,0.5816,0.5815,0.5815,0.5752,0.5751,0.5749,0,0,0,0,0,0,0.5746,0.5746,0.5748,0.5751,0.5752,0.5772,0.5769,0.5774,0.5774,0.5792,0.5796,0.5789,0.5808,0.5808,0.5793,0.5775,0.5815,0.5815,0.5754,0.5752,0.575,0.5707,0,0,0,0,0,0,0.5746,0.5746,0.5735,0.575,0.5751,0.5734,0.5768,0.5773,0.5773,0.5777,0.5789,0.5792,0.5809,0.5794,0.5793,0.5775,0.5814,0.5756,0.5753,0.5751,0.571,0.5703,0.5698,0,0,0,0,0,0.5746,0.5722,0.5734,0.5734,0.5739,0.5733,0.5734,0.5754,0.5771,0.576,0.5772,0.5792,0.5777,0.5792,0.5791,0.5773,0.5757,0.5754,0.5751,0.5712,0.5705,0.5698,0,0,0,0,0,0,0.5704,0.5724,0.5738,0.5719,0.5724,0.574,0.5727,0.5745,0.5745,0.5749,0.5773,0.5775,0.5757,0.5763,0.578,0.5745,0.577,0.5767,0.5741,0.5734,0.5728,0.5727,0.5814,0,0,0,0,0,0.5692,0.5687,0.5705,0.5686,0.5688,0.5707,0.5705,0.572,0.5726,0.5729,0.5739,0.5744,0.5741,0.5738,0.5735,0.5711,0.5714,0.5698,0.5692,0.5687,0.5683,0.567,0.5663,0.5739,0.5739,0.5739,0,0,0.5669,0.5679,0.5674,0.5677,0.5683,0.5676,0.5709,0.57,0.5695,0.5727,0.5714,0.5722,0.5729,0.5709,0.5701,0.5714,0.5663,0.5683,0.5679,0.5678,0.5667,0.5659,0.5653,0.5737,0.5737,0.5738,0,0,0.5622,0.5629,0.5614,0.5619,0.5628,0.564,0.5637,0.565,0.5657,0.5644,0.5668,0.5662,0.5655,0.5659,0.566,0.5614,0.5632,0.5613,0.5581,0.5569,0.5563,0.5557,0.5541,0.5534,0.5609,0.5609,0.5609,0,0.5591,0.5582,0.5604,0.5593,0.5594,0.5623,0.5607,0.5611,0.5618,0.5618,0.5633,0.5625,0.5632,0.5613,0.5601,0.5601,0.5598,0.5612,0.5562,0.5557,0.5552,0.5537,0.553,0.5607,0.5607,0.5607,0.5608,0,0.5543,0.5537,0.5523,0.553,0.5529,0.5516,0.5535,0.5531,0.5546,0.5557,0.5543,0.5552,0.5552,0.5549,0.5563,0.5532,0.554,0.5558,0.5584,0.5542,0.5528,0.5522,0.5603,0.5604,0.5605,0.5606,0,0,0.5471,0.5489,0.5484,0.5487,0.5498,0.5493,0.5481,0.5482,0.5478,0.5482,0.5472,0.5465,0.5482,0.5483,0.5498,0.5487,0.5449,0.5506,0.5506,0.5495,0.5415,0.5401,0.5394,0.5461,0.546,0.5459,0.5414,0,0.5426,0.5408,0.5427,0.5404,0.5398,0.5425,0.5415,0.542,0.543,0.5426,0.5437,0.5431,0.5454,0.5455,0.5445,0.5456,0.5433,0.5459,0.5452,0.5451,0.5449,0.5387,0.5372,0.533,0.5409,0.5408,0.5407,0,0.5373,0.5374,0.5351,0.5363,0.5361,0.5352,0.5353,0.5349,0.5355,0.5363,0.5364,0.5382,0.5371,0.5396,0.538,0.5397,0.5395,0.54,0.5399,0.5399,0.5427,0.5385,0.5317,0.531,0.5399,0.5399,0.54,0,0.5322,0.5318,0.5303,0.5305,0.5319,0.5312,0.5317,0.5325,0.5324,0.5325,0.5324,0.5324,0.5323,0.5322,0.5339,0.5356,0.5321,0.5348,0.5327,0.5327,0.5319,0.5319,0.5249,0.5317,0.5317,0.5318,0.5318,0,0.5271,0.5255,0.5281,0.5272,0.5255,0.5277,0.5259,0.5268,0.5274,0.5267,0.529,0.5283,0.5305,0.53,0.5313,0.5298,0.5297,0.5303,0.5307,0.5301,0.53,0.53,0.5304,0.5316,0.5316,0.5317,0.5317,0,0.5211,0.5228,0.5214,0.5228,0.5231,0.5218,0.5231,0.5223,0.5234,0.5224,0.5223,0.5241,0.5236,0.5252,0.525,0.5259,0.5236,0.5245,0.5234,0.5237,0.5215,0.5217,0.5142,0.5134,0.5207,0.5207,0.5206,0,0.5178,0.5166,0.518,0.5177,0.5181,0.5176,0.5174,0.5195,0.5193,0.5199,0.519,0.5187,0.5185,0.5176,0.5188,0.5186,0.5195,0.5169,0.5195,0.5189,0.5194,0.5195,0.5193,0.5163,0.5162,0.5162,0.5161,0,0.5116,0.5124,0.5122,0.5123,0.5121,0.5122,0.5125,0.512,0.5142,0.5138,0.5134,0.5133,0.513,0.5127,0.5127,0.5132,0.515,0.5153,0.5148,0.5142,0.5136,0.5139,0.5219,0.5155,0.5155,0.5156,0.5156,0.5156,0.5068,0.506,0.5067,0.5064,0.5068,0.507,0.5063,0.5073,0.507,0.507,0.5082,0.5074,0.508,0.5083,0.5086,0.508,0.5092,0.5085,0.5084,0.5081,0.5078,0.5137,0.5081,0.5081,0.5081,0.5081,0.5081,0,0.5008,0.5014,0.5011,0.5014,0.5011,0.5028,0.5032,0.5028,0.5021,0.5026,0.5024,0.5018,0.5014,0.5026,0.5024,0.5017,0.5025,0.5016,0.5017,0.5017,0.5067,0.5072,0.5009,0.5009,0.5009,0.5009,0.501,0.501,0.4976,0.4962,0.4971,0.4959,0.4966,0.4959,0.4959,0.4961,0.4965,0.4957,0.4954,0.4962,0.4969,0.4968,0.4965,0.4969,0.4967,0.4955,0.4961,0.5007,0.5014,0.5021,0.5025,0.4954,0.4954,0.4912,0.4911,0.4911]}]]